Regional Weather Roundup
Issued by NWS

Home | Current Version | Previous Version | Graphics & Text | Print | Product List | Glossary On
Versions: 1 2 3 4 5 6 7 8 9 10 11 12 13 14 15 16 17 18 19 20 21 22 23 24 25 26 27 28 29 30 31 32 33 34 35 36 37 38 39 40 41 42 43 44 45 46 47 48 49 50
000
ASUS45 KCYS 270110
RWRWY

WYOMING REGIONAL WEATHER ROUNDUP
NATIONAL WEATHER SERVICE CHEYENNE WY
700 PM MDT TUE MAY 26 2015

NOTE:  "FAIR" INDICATES FEW OR NO CLOUDS BELOW 12,000 FEET
WITH NO SIGNIFICANT WEATHER AND/OR OBSTRUCTIONS TO VISIBILITY.

WYZ001-270200-
YELLOWSTONE NATIONAL PARK

CITY           SKY/WX    TMP DP  RH WIND       PRES   REMARKS
LK YELLOWSTONE   N/A     43  38  82 CALM      30.13F
W YELLOWSTONE  NOT AVBL

$$
WYZ002>013-054>058-071-098>099-270200-
NORTHERN WYOMING

CITY           SKY/WX    TMP DP  RH WIND       PRES   REMARKS
JACKSON        MOSUNNY   50  43  76 S5        30.08S
CODY           CLOUDY    54  46  76 NW7       30.00R
GREYBULL       FAIR      67  45  45 N18G28    29.90F
WORLAND        FAIR      67  50  54 W3        29.91R
SHERIDAN       FAIR      62  49  62 NE6       29.92S
BUFFALO        PTSUNNY   64  44  48 VRB3      29.95F
GILLETTE       CLOUDY    58  51  78 S12       29.95F
HULETT         FAIR      61  52  72 S3        29.96F
NEWCASTLE      FAIR      59  43  55 E8        29.98R

$$
WYZ014>020-022>026-101>103-270200-
CENTRAL WYOMING

CITY           SKY/WX    TMP DP  RH WIND       PRES   REMARKS
BIG PINEY      CLOUDY    51  43  74 N7        30.08S
PINEDALE       FAIR      50  41  71 NW8       30.08F
DUBOIS         MOCLDY    54  36  50 W14       30.04S
LANDER         NOT AVBL
RIVERTON       PTSUNNY   63  46  54 NW10      29.96F
CASPER         FAIR      63  45  51 CALM      29.95R
DOUGLAS        FAIR      67  43  41 S9        29.95S

$$
WYZ021-027>030-104>119-270200-
SOUTHERN WYOMING

CITY           SKY/WX    TMP DP  RH WIND       PRES   REMARKS
EVANSTON       LGT RAIN  50  45  83 W12       30.10R
KEMMERER       CLOUDY    50  43  76 NW12      30.09S
FORT BRIDGER   CLOUDY    52  48  87 W13       30.12R
ROCK SPRINGS   CLOUDY    50  45  83 S8        30.07S
DIXON          CLOUDY    60  42  50 S12G17    30.09R
RAWLINS        FAIR      57  40  52 S17       30.05R
SARATOGA       CLOUDY    52  41  66 S16       30.09S
LARAMIE        FAIR      53  40  61 SW10      30.08R
CHEYENNE       FAIR      57  43  59 S8        30.05S
TORRINGTON     FAIR      66  51  58 SE12      29.95S
PINE BLUFFS    FAIR      59  50  72 SE9       30.03S

$$


USA.gov is the U.S. government's official web portal to all federal, state and local government web resources and services.